User: anonymous   Login
Location: Alsip
(41.6689°N, 87.7387°W)
Time: 17:38:59
(UTC+00:00)
Language:

Cosmos 1048 Rocket - Orbit

View from above orbital plane
View from above orbital plane
View from above satellite
View from above satellite

Ground track
Ground track

The orbit data is extracted from the following two-line orbital elements,

1 11112U 78105B   20270.93231695 +.00000085 +00000-0 +37276-4 0  9998
2 11112 074.0297 122.4794 0033973 345.4680 014.5493 14.37268441191570
Epoch (UTC): 26 September 2020 22:22:32
Eccentricity: 0.0033973
inclination: 74.0297°
perigee height: 743 km
apogee height: 792 km
right ascension of ascending node: 122.4794°
argument of perigee: 345.4680°
revolutions per day: 14.37268441
mean anomaly at epoch: 14.5493°
orbit number at epoch: 19157

The dashed part of the orbit path shows where the satellite is in the earth's shadow,  

DLR